WetterOnline ( http://www.wetteronline.de )

Wetter aktuell Duisburg

Aktuelles Wetter: Essen (161m)

6-stündlich | Neueste Meldungen
Ortszeit Temperatur Wetter
So, 19.08. 8:00 15.3° C wolkig
So, 19.08. 2:00 15.6° C wolkig
Sa, 18.08. 20:00 21.5° C wolkig
Sa, 18.08. 14:00 22.0° C fast wolkenlos
Sa, 18.08. 8:00 13.5° C leicht bewölkt
Sa, 18.08. 2:00 15.2° C leicht bewölkt
Fr, 17.08. 20:00 21.1° C bewölkt
Fr, 17.08. 14:00 17.2° C bedeckt
Ortszeit Temperatur Wetter
So, 19.08. 10:00 18.6° C bedeckt
So, 19.08. 9:50 18.6° C bedeckt
So, 19.08. 9:40 18.7° C bedeckt
So, 19.08. 9:30 18.1° C wolkenlos
So, 19.08. 9:20 18.1° C wolkenlos
So, 19.08. 9:10 17.4° C wolkenlos
So, 19.08. 9:00 17.2° C leicht bewölkt
So, 19.08. 8:30 16.1° C wolkig
So, 19.08. 8:00 15.3° C wolkig
So, 19.08. 7:30 14.6° C wolkig
So, 19.08. 7:00 14.4° C wolkig
Ortszeit Relative Feuchte Sichtweite
So, 19.08. 8:00 86% 21 km
So, 19.08. 2:00 84% 30 km
Sa, 18.08. 20:00 57% 50 km
Sa, 18.08. 14:00 48% 35 km
Sa, 18.08. 8:00 88% 19 km
Sa, 18.08. 2:00 80% 35 km
Fr, 17.08. 20:00 47% 50 km
Fr, 17.08. 14:00 85% 40 km
Ortszeit Relative Feuchte Sichtweite
So, 19.08. 10:00 68% 50 km
So, 19.08. 9:50 68% -
So, 19.08. 9:40 70% -
So, 19.08. 9:30 74% 35 km
So, 19.08. 9:20 74% -
So, 19.08. 9:10 76% -
So, 19.08. 9:00 79% 30 km
So, 19.08. 8:30 83% 26 km
So, 19.08. 8:00 86% 21 km
So, 19.08. 7:30 88% 20 km
So, 19.08. 7:00 90% 19 km
Ortszeit Niederschlagsmenge Niederschlagsart
So, 19.08. 8:00 0.0 l/m2 in 12 Std. -
So, 19.08. 2:00 0.0 l/m2 in 6 Std. -
Sa, 18.08. 20:00 0.0 l/m2 in 12 Std. -
Sa, 18.08. 14:00 0.0 l/m2 in 6 Std. -
Sa, 18.08. 8:00 0.0 l/m2 in 12 Std. -
Sa, 18.08. 2:00 0.0 l/m2 in 6 Std. -
Fr, 17.08. 20:00 4 l/m2 in 12 Std. -
Fr, 17.08. 14:00 4 l/m2 in 6 Std. Regen
Ortszeit Niederschlagsmenge Niederschlagsart
So, 19.08. 10:00 0.0 l/m2 in 1 Std. -
So, 19.08. 9:50 keine Meldung -
So, 19.08. 9:40 keine Meldung -
So, 19.08. 9:30 0.0 l/m2 in 1 Std. -
So, 19.08. 9:20 keine Meldung -
So, 19.08. 9:10 keine Meldung -
So, 19.08. 9:00 0.0 l/m2 in 1 Std. -
So, 19.08. 8:30 0.0 l/m2 in 1 Std. -
So, 19.08. 8:00 0.0 l/m2 in 1 Std. -
So, 19.08. 7:30 0.0 l/m2 in 1 Std. -
So, 19.08. 7:00 0.0 l/m2 in 1 Std. -
Ortszeit Stärke Spitze Richtung
km/h Bft. km/h Grad Sektor
So, 19.08. 8:00 9 2 13 200° S
So, 19.08. 2:00 4 1 14 180° S
Sa, 18.08. 20:00 9 2 31 310° NW
Sa, 18.08. 14:00 14 3 29 220° SW
Sa, 18.08. 8:00 7 2 11 190° S
Sa, 18.08. 2:00 7 2 11 290° W
Fr, 17.08. 20:00 7 2 22 10° N
Fr, 17.08. 14:00 9 2 24 330° NW
Ortszeit Stärke Spitze Richtung
km/h Bft. km/h Grad Sektor
So, 19.08. 10:00 13 3 28 230° SW
So, 19.08. 9:50 13 3 - 230° SW
So, 19.08. 9:40 11 2 - 220° SW
So, 19.08. 9:30 11 2 19 210° SW
So, 19.08. 9:20 11 2 - 210° SW
So, 19.08. 9:10 9 2 - 200° S
So, 19.08. 9:00 9 2 15 210° SW
So, 19.08. 8:30 9 2 13 210° SW
So, 19.08. 8:00 9 2 13 200° S
So, 19.08. 7:30 6 1 9 200° S
So, 19.08. 7:00 6 1 9 190° S
Ortszeit Untergrenze Bedeckung Gattung
total tief tief mittel hoch
So, 19.08. 8:00 10500 m 7/8 0/8 - - -
So, 19.08. 2:00 10500 m 8/8 0/8 - - -
Sa, 18.08. 20:00 9000 m 7/8 0/8 - - -
Sa, 18.08. 14:00 1350 m 1/8 1/8 - - -
Sa, 18.08. 8:00 1500 m 5/8 2/8 - - -
Sa, 18.08. 2:00 10500 m 6/8 0/8 - - -
Fr, 17.08. 20:00 1500 m 7/8 7/8 - - -
Fr, 17.08. 14:00 300 m 8/8 8/8 - - -
Ortszeit Bedeckungsgrad in Achtel und Wolkenuntergrenze
So, 19.08. 10:00 8
So, 19.08. 9:50 9 9 9
So, 19.08. 9:40 9 9 9
So, 19.08. 9:30 9 9 9
So, 19.08. 9:20 keine Wolken
So, 19.08. 9:10 keine Wolken
So, 19.08. 9:00 3(10500m)
So, 19.08. 8:30 7(10500m)
So, 19.08. 8:00 7(10500m)
So, 19.08. 7:30 7(10500m)
So, 19.08. 7:00 1(1800m) 5(10500m)
Ortszeit Luftdruck NN (hPa) Tendenz (hPa in 3 Std.)
So, 19.08. 8:00 1022 0,0
So, 19.08. 2:00 1023 + 0,5
Sa, 18.08. 20:00 1022 + 0,1
Sa, 18.08. 14:00 1022 - 0,4
Sa, 18.08. 8:00 1023 + 0,7
Sa, 18.08. 2:00 1022 + 0,8
Fr, 17.08. 20:00 1019 + 0,2
Fr, 17.08. 14:00 1019 + 1,0
Ortszeit Luftdruck NN (hPa) Tendenz (hPa in 3 Std.)
So, 19.08. 10:00 1022 0,0
So, 19.08. 9:50 1022 keine Meldung
So, 19.08. 9:40 1022 keine Meldung
So, 19.08. 9:30 1022 - 0,1
So, 19.08. 9:20 1022 keine Meldung
So, 19.08. 9:10 1022 keine Meldung
So, 19.08. 9:00 1022 - 0,1
So, 19.08. 8:30 1022 0,0
So, 19.08. 8:00 1022 0,0
So, 19.08. 7:30 1022 - 0,1
So, 19.08. 7:00 1022 - 0,3
Ortszeit Schneehöhe (cm)
So, 19.08. 8:00 -
So, 19.08. 2:00 -
Sa, 18.08. 20:00 -
Sa, 18.08. 14:00 -
Sa, 18.08. 8:00 -
Sa, 18.08. 2:00 -
Fr, 17.08. 20:00 -
Fr, 17.08. 14:00 -
Ortszeit Schneehöhe (cm)
So, 19.08. 10:00 -
So, 19.08. 9:50 -
So, 19.08. 9:40 -
So, 19.08. 9:30 -
So, 19.08. 9:20 -
So, 19.08. 9:10 -
So, 19.08. 9:00 -
So, 19.08. 8:30 -
So, 19.08. 8:00 -
So, 19.08. 7:30 -
So, 19.08. 7:00 -
Link zu dieser Seite / Seite empfehlen

Das Wetter in ...